Time,TemperatureF,DewpointF,PressureIn,WindDirection,WindDirectionDegrees,WindSpeedMPH,WindSpeedGustMPH,Humidity,HourlyPrecipIn,Conditions,Clouds,dailyrainin,SoftwareType,DateUTC
2013-09-27 00:00:00,62.7,58.5,30.12,NNE,18,0.0,0.0,86,0.00,CLR,,0.00,WeatherDisplay:10.37,2013-09-27 04:00:00,
2013-09-27 00:01:00,62.3,58.1,30.12,NNE,18,0.0,0.0,86,0.00,CLR,,0.00,WeatherDisplay:10.37,2013-09-27 04:01:00,
2013-09-27 00:03:00,62.5,58.3,30.12,NNE,18,0.0,0.0,86,0.00,CLR,,0.00,WeatherDisplay:10.37,2013-09-27 04:03:00,
2013-09-27 00:06:00,62.3,58.1,30.12,NNE,18,0.0,0.0,86,0.00,CLR,,0.00,WeatherDisplay:10.37,2013-09-27 04:06:00,
2013-09-27 00:08:00,62.0,57.8,30.12,NNE,18,0.0,0.0,86,0.00,CLR,,0.00,WeatherDisplay:10.37,2013-09-27 04:08:00,
2013-09-27 00:11:00,62.0,58.1,30.12,NNE,18,0.0,0.0,87,0.00,CLR,,0.00,WeatherDisplay:10.37,2013-09-27 04:11:00,
2013-09-27 00:12:00,62.1,58.2,30.12,NNE,18,0.0,0.0,87,0.00,CLR,,0.00,WeatherDisplay:10.37,2013-09-27 04:12:00,
2013-09-27 00:14:00,61.7,57.8,30.12,NNE,18,0.0,0.0,87,0.00,CLR,,0.00,WeatherDisplay:10.37,2013-09-27 04:14:00,
2013-09-27 00:16:00,62.0,58.1,30.12,NNE,18,0.0,0.0,87,0.00,CLR,,0.00,WeatherDisplay:10.37,2013-09-27 04:16:00,
2013-09-27 00:18:00,61.8,57.9,30.12,NNE,18,0.0,0.0,87,0.00,CLR,,0.00,WeatherDisplay:10.37,2013-09-27 04:18:00,
2013-09-27 00:20:00,61.8,57.9,30.12,NNE,18,0.0,0.0,87,0.00,CLR,,0.00,WeatherDisplay:10.37,2013-09-27 04:20:00,
2013-09-27 00:21:00,61.8,57.9,30.12,NNE,18,0.0,0.0,87,0.00,CLR,,0.00,WeatherDisplay:10.37,2013-09-27 04:21:00,
2013-09-27 00:23:00,61.9,58.0,30.12,NNE,18,0.0,0.0,87,0.00,CLR,,0.00,WeatherDisplay:10.37,2013-09-27 04:23:00,
2013-09-27 00:25:00,61.7,57.8,30.12,NNE,18,0.0,0.0,87,0.00,CLR,,0.00,WeatherDisplay:10.37,2013-09-27 04:25:00,
2013-09-27 00:26:00,61.5,57.6,30.12,NNE,18,0.0,0.0,87,0.00,CLR,,0.00,WeatherDisplay:10.37,2013-09-27 04:26:00,
2013-09-27 00:29:00,61.5,57.6,30.12,NNE,18,0.0,0.0,87,0.00,CLR,,0.00,WeatherDisplay:10.37,2013-09-27 04:29:00,
2013-09-27 00:30:00,61.4,57.5,30.12,NNE,18,0.0,0.0,87,0.00,CLR,,0.00,WeatherDisplay:10.37,2013-09-27 04:30:00,
2013-09-27 00:31:00,61.4,57.8,30.12,NNE,18,0.0,0.0,88,0.00,CLR,,0.00,WeatherDisplay:10.37,2013-09-27 04:31:00,
2013-09-27 00:32:00,61.4,57.8,30.12,NNE,18,0.0,0.0,88,0.00,CLR,,0.00,WeatherDisplay:10.37,2013-09-27 04:32:00,
2013-09-27 00:34:00,61.2,57.6,30.12,NNE,18,0.0,0.0,88,0.00,CLR,,0.00,WeatherDisplay:10.37,2013-09-27 04:34:00,
2013-09-27 00:36:00,61.3,57.7,30.12,NNE,18,0.0,0.0,88,0.00,CLR,,0.00,WeatherDisplay:10.37,2013-09-27 04:36:00,
2013-09-27 00:37:00,61.0,57.4,30.12,NNE,18,0.0,0.0,88,0.00,CLR,,0.00,WeatherDisplay:10.37,2013-09-27 04:37:00,
2013-09-27 00:40:00,61.1,57.5,30.12,NNE,18,0.0,0.0,88,0.00,CLR,,0.00,WeatherDisplay:10.37,2013-09-27 04:40:00,
2013-09-27 00:41:00,60.9,57.3,30.12,NNE,18,0.0,0.0,88,0.00,CLR,,0.00,WeatherDisplay:10.37,2013-09-27 04:41:00,
2013-09-27 00:42:00,61.2,57.6,30.12,NNE,18,0.0,0.0,88,0.00,CLR,,0.00,WeatherDisplay:10.37,2013-09-27 04:42:00,
2013-09-27 00:45:00,60.8,57.2,30.12,NNE,18,0.0,0.0,88,0.00,CLR,,0.00,WeatherDisplay:10.37,2013-09-27 04:45:00,
2013-09-27 00:46:00,60.6,57.3,30.12,NNE,18,0.0,0.0,89,0.00,CLR,,0.00,WeatherDisplay:10.37,2013-09-27 04:46:00,
2013-09-27 00:47:00,60.6,57.3,30.12,NNE,18,0.0,0.0,89,0.00,CLR,,0.00,WeatherDisplay:10.37,2013-09-27 04:47:00,
2013-09-27 00:51:00,61.0,57.7,30.13,NNE,18,0.0,0.0,89,0.00,CLR,,0.00,WeatherDisplay:10.37,2013-09-27 04:51:00,
2013-09-27 00:52:00,60.8,57.5,30.13,NNE,18,0.0,0.0,89,0.00,CLR,,0.00,WeatherDisplay:10.37,2013-09-27 04:52:00,
2013-09-27 00:56:00,60.7,57.4,30.13,NNE,18,0.0,0.0,89,0.00,CLR,,0.00,WeatherDisplay:10.37,2013-09-27 04:56:00,
2013-09-27 00:57:00,60.5,57.2,30.13,NNE,18,0.0,0.0,89,0.00,CLR,,0.00,WeatherDisplay:10.37,2013-09-27 04:57:00,
2013-09-27 01:01:00,60.5,57.2,30.12,NNE,18,0.0,0.0,89,0.00,CLR,,0.00,WeatherDisplay:10.37,2013-09-27 05:01:00,
2013-09-27 01:02:00,60.0,56.7,30.13,NNE,18,0.0,0.0,89,0.00,CLR,,0.00,WeatherDisplay:10.37,2013-09-27 05:02:00,
2013-09-27 01:03:00,60.4,57.1,30.13,NNE,18,0.0,0.0,89,0.00,CLR,,0.00,WeatherDisplay:10.37,2013-09-27 05:03:00,
2013-09-27 01:06:00,60.3,57.0,30.13,NNE,18,0.0,0.0,89,0.00,CLR,,0.00,WeatherDisplay:10.37,2013-09-27 05:06:00,
2013-09-27 01:07:00,60.6,57.3,30.13,NNE,18,0.0,0.0,89,0.00,CLR,,0.00,WeatherDisplay:10.37,2013-09-27 05:07:00,
2013-09-27 01:08:00,60.4,57.1,30.13,NNE,18,0.0,0.0,89,0.00,CLR,,0.00,WeatherDisplay:10.37,2013-09-27 05:08:00,
2013-09-27 01:11:00,59.8,56.6,30.13,NNE,18,0.0,0.0,89,0.00,CLR,,0.00,WeatherDisplay:10.37,2013-09-27 05:11:00,
2013-09-27 01:12:00,60.0,56.7,30.13,NNE,18,0.0,0.0,89,0.00,CLR,,0.00,WeatherDisplay:10.37,2013-09-27 05:12:00,
2013-09-27 01:13:00,59.8,56.6,30.13,NNE,18,0.0,0.0,89,0.00,CLR,,0.00,WeatherDisplay:10.37,2013-09-27 05:13:00,
2013-09-27 01:17:00,59.5,56.3,30.13,NNE,18,0.0,0.0,89,0.00,CLR,,0.00,WeatherDisplay:10.37,2013-09-27 05:17:00,
2013-09-27 01:18:00,59.5,56.3,30.13,NNE,18,0.0,0.0,89,0.00,CLR,,0.00,WeatherDisplay:10.37,2013-09-27 05:18:00,
2013-09-27 01:19:00,59.4,56.2,30.13,NNE,18,0.0,0.0,89,0.00,CLR,,0.00,WeatherDisplay:10.37,2013-09-27 05:19:00,
2013-09-27 01:22:00,59.7,56.8,30.13,NNE,18,0.0,0.0,90,0.00,CLR,,0.00,WeatherDisplay:10.37,2013-09-27 05:22:00,
2013-09-27 01:23:00,59.5,56.6,30.13,NNE,18,0.0,0.0,90,0.00,CLR,,0.00,WeatherDisplay:10.37,2013-09-27 05:23:00,
2013-09-27 01:24:00,59.6,56.4,30.13,NNE,18,0.0,0.0,89,0.00,CLR,,0.00,WeatherDisplay:10.37,2013-09-27 05:24:00,
2013-09-27 01:28:00,59.5,56.6,30.13,NNE,18,0.0,0.0,90,0.00,CLR,,0.00,WeatherDisplay:10.37,2013-09-27 05:28:00,
2013-09-27 01:29:00,59.5,56.6,30.13,NNE,18,0.0,0.0,90,0.00,CLR,,0.00,WeatherDisplay:10.37,2013-09-27 05:29:00,
2013-09-27 01:33:00,59.5,56.6,30.13,NNE,18,0.0,0.0,90,0.00,CLR,,0.00,WeatherDisplay:10.37,2013-09-27 05:33:00,
2013-09-27 01:34:00,59.6,56.7,30.13,NNE,18,0.0,0.0,90,0.00,CLR,,0.00,WeatherDisplay:10.37,2013-09-27 05:34:00,
2013-09-27 01:35:00,59.3,56.4,30.13,NNE,18,0.0,0.0,90,0.00,CLR,,0.00,WeatherDisplay:10.37,2013-09-27 05:35:00,
2013-09-27 01:38:00,59.3,56.4,30.13,NNE,18,0.0,0.0,90,0.00,CLR,,0.00,WeatherDisplay:10.37,2013-09-27 05:38:00,
2013-09-27 01:39:00,59.0,56.1,30.13,NNE,18,0.0,0.0,90,0.00,CLR,,0.00,WeatherDisplay:10.37,2013-09-27 05:39:00,
2013-09-27 01:40:00,58.9,56.0,30.14,NNE,18,0.0,0.0,90,0.00,CLR,,0.00,WeatherDisplay:10.37,2013-09-27 05:40:00,
2013-09-27 01:43:00,58.3,55.4,30.14,NNE,18,0.0,0.0,90,0.00,CLR,,0.00,WeatherDisplay:10.37,2013-09-27 05:43:00,
2013-09-27 01:44:00,58.8,55.9,30.14,NNE,18,0.0,0.0,90,0.00,CLR,,0.00,WeatherDisplay:10.37,2013-09-27 05:44:00,
2013-09-27 01:45:00,59.0,56.4,30.13,NNE,18,0.0,0.0,91,0.00,CLR,,0.00,WeatherDisplay:10.37,2013-09-27 05:45:00,
2013-09-27 01:48:00,59.2,56.6,30.14,NNE,18,0.0,0.0,91,0.00,CLR,,0.00,WeatherDisplay:10.37,2013-09-27 05:48:00,
2013-09-27 01:49:00,58.3,55.7,30.14,NNE,18,0.0,0.0,91,0.00,CLR,,0.00,WeatherDisplay:10.37,2013-09-27 05:49:00,
2013-09-27 01:51:00,58.8,56.2,30.14,NNE,18,0.0,0.0,91,0.00,CLR,,0.00,WeatherDisplay:10.37,2013-09-27 05:51:00,
2013-09-27 01:53:00,57.9,55.3,30.14,NNE,18,0.0,0.0,91,0.00,CLR,,0.00,WeatherDisplay:10.37,2013-09-27 05:53:00,
2013-09-27 01:54:00,58.9,56.3,30.14,NNE,18,0.0,0.0,91,0.00,CLR,,0.00,WeatherDisplay:10.37,2013-09-27 05:54:00,
2013-09-27 01:55:00,58.2,55.6,30.14,NNE,18,0.0,0.0,91,0.00,CLR,,0.00,WeatherDisplay:10.37,2013-09-27 05:55:00,
2013-09-27 01:56:00,58.8,56.2,30.14,NNE,18,0.0,0.0,91,0.00,CLR,,0.00,WeatherDisplay:10.37,2013-09-27 05:56:00,
2013-09-27 01:58:00,58.9,56.3,30.14,NNE,18,0.0,0.0,91,0.00,CLR,,0.00,WeatherDisplay:10.37,2013-09-27 05:58:00,
2013-09-27 02:00:00,57.3,54.7,30.14,NNE,18,0.0,0.0,91,0.00,CLR,,0.00,WeatherDisplay:10.37,2013-09-27 06:00:00,
2013-09-27 02:03:00,57.7,55.1,30.13,NNE,18,0.0,0.0,91,0.00,CLR,,0.00,WeatherDisplay:10.37,2013-09-27 06:03:00,
2013-09-27 02:04:00,58.0,55.4,30.14,NNE,18,0.0,0.0,91,0.00,CLR,,0.00,WeatherDisplay:10.37,2013-09-27 06:04:00,
2013-09-27 02:05:00,57.1,54.5,30.14,NNE,18,0.0,0.0,91,0.00,CLR,,0.00,WeatherDisplay:10.37,2013-09-27 06:05:00,
2013-09-27 02:08:00,58.0,55.4,30.13,NNE,18,0.0,0.0,91,0.00,CLR,,0.00,WeatherDisplay:10.37,2013-09-27 06:08:00,
2013-09-27 02:10:00,57.9,55.3,30.13,NNE,18,0.0,0.0,91,0.00,CLR,,0.00,WeatherDisplay:10.37,2013-09-27 06:10:00,
2013-09-27 02:13:00,56.7,54.1,30.13,NNE,18,0.0,0.0,91,0.00,CLR,,0.00,WeatherDisplay:10.37,2013-09-27 06:13:00,
2013-09-27 02:14:00,57.8,55.2,30.13,NNE,18,0.0,0.0,91,0.00,CLR,,0.00,WeatherDisplay:10.37,2013-09-27 06:14:00,
2013-09-27 02:15:00,57.3,54.7,30.13,NNE,18,0.0,0.0,91,0.00,CLR,,0.00,WeatherDisplay:10.37,2013-09-27 06:15:00,
2013-09-27 02:18:00,56.7,54.1,30.13,NNE,18,0.0,0.0,91,0.00,CLR,,0.00,WeatherDisplay:10.37,2013-09-27 06:18:00,
2013-09-27 02:19:00,56.1,53.8,30.13,NNE,18,0.0,0.0,92,0.00,CLR,,0.00,WeatherDisplay:10.37,2013-09-27 06:19:00,
2013-09-27 02:20:00,56.7,54.1,30.13,NNE,18,0.0,0.0,91,0.00,CLR,,0.00,WeatherDisplay:10.37,2013-09-27 06:20:00,
2013-09-27 02:21:00,56.6,54.0,30.13,NNE,18,0.0,0.0,91,0.00,CLR,,0.00,WeatherDisplay:10.37,2013-09-27 06:21:00,
2013-09-27 02:23:00,55.8,53.5,30.14,NNE,18,0.0,0.0,92,0.00,CLR,,0.00,WeatherDisplay:10.37,2013-09-27 06:23:00,
2013-09-27 02:24:00,56.3,54.0,30.13,NNE,18,0.0,0.0,92,0.00,CLR,,0.00,WeatherDisplay:10.37,2013-09-27 06:24:00,
2013-09-27 02:25:00,56.2,53.9,30.13,NNE,18,0.0,0.0,92,0.00,CLR,,0.00,WeatherDisplay:10.37,2013-09-27 06:25:00,
2013-09-27 02:26:00,56.6,54.3,30.14,NNE,18,0.0,0.0,92,0.00,CLR,,0.00,WeatherDisplay:10.37,2013-09-27 06:26:00,
2013-09-27 02:28:00,56.2,53.9,30.14,NNE,18,0.0,0.0,92,0.00,CLR,,0.00,WeatherDisplay:10.37,2013-09-27 06:28:00,
2013-09-27 02:29:00,56.4,54.1,30.14,NNE,18,0.0,0.0,92,0.00,CLR,,0.00,WeatherDisplay:10.37,2013-09-27 06:29:00,
2013-09-27 02:30:00,56.0,53.7,30.14,NNE,18,0.0,0.0,92,0.00,CLR,,0.00,WeatherDisplay:10.37,2013-09-27 06:30:00,
2013-09-27 02:31:00,55.5,53.2,30.14,NNE,18,0.0,0.0,92,0.00,CLR,,0.00,WeatherDisplay:10.37,2013-09-27 06:31:00,
2013-09-27 02:34:00,56.6,54.3,30.13,NNE,18,0.0,0.0,92,0.00,CLR,,0.00,WeatherDisplay:10.37,2013-09-27 06:34:00,
2013-09-27 02:35:00,55.6,53.3,30.14,NNE,18,0.0,0.0,92,0.00,CLR,,0.00,WeatherDisplay:10.37,2013-09-27 06:35:00,
2013-09-27 02:36:00,55.8,53.5,30.14,NNE,18,0.0,0.0,92,0.00,CLR,,0.00,WeatherDisplay:10.37,2013-09-27 06:36:00,
2013-09-27 02:37:00,56.6,54.3,30.14,NNE,18,0.0,0.0,92,0.00,CLR,,0.00,WeatherDisplay:10.37,2013-09-27 06:37:00,
2013-09-27 02:39:00,55.4,53.1,30.14,NNE,18,0.0,0.0,92,0.00,CLR,,0.00,WeatherDisplay:10.37,2013-09-27 06:39:00,
2013-09-27 02:40:00,55.2,52.9,30.14,NNE,18,0.0,0.0,92,0.00,CLR,,0.00,WeatherDisplay:10.37,2013-09-27 06:40:00,
2013-09-27 02:41:00,55.7,53.4,30.13,NNE,18,0.0,0.0,92,0.00,CLR,,0.00,WeatherDisplay:10.37,2013-09-27 06:41:00,
2013-09-27 02:42:00,55.7,53.4,30.14,NNE,18,0.0,0.0,92,0.00,CLR,,0.00,WeatherDisplay:10.37,2013-09-27 06:42:00,
2013-09-27 02:44:00,56.1,53.8,30.14,NNE,18,0.0,0.0,92,0.00,CLR,,0.00,WeatherDisplay:10.37,2013-09-27 06:44:00,
2013-09-27 02:45:00,55.6,53.3,30.14,NNE,18,0.0,0.0,92,0.00,CLR,,0.00,WeatherDisplay:10.37,2013-09-27 06:45:00,
2013-09-27 02:46:00,55.8,53.5,30.13,NNE,18,0.0,0.0,92,0.00,CLR,,0.00,WeatherDisplay:10.37,2013-09-27 06:46:00,
2013-09-27 02:47:00,55.0,52.7,30.13,NNE,18,0.0,0.0,92,0.00,CLR,,0.00,WeatherDisplay:10.37,2013-09-27 06:47:00,
2013-09-27 02:49:00,55.9,53.9,30.14,NNE,18,0.0,0.0,93,0.00,CLR,,0.00,WeatherDisplay:10.37,2013-09-27 06:49:00,
2013-09-27 02:50:00,55.6,53.6,30.14,NNE,18,0.0,0.0,93,0.00,CLR,,0.00,WeatherDisplay:10.37,2013-09-27 06:50:00,
2013-09-27 02:51:00,54.6,52.6,30.13,NNE,18,0.0,0.0,93,0.00,CLR,,0.00,WeatherDisplay:10.37,2013-09-27 06:51:00,
2013-09-27 02:52:00,55.0,53.0,30.13,NNE,18,0.0,0.0,93,0.00,CLR,,0.00,WeatherDisplay:10.37,2013-09-27 06:52:00,
2013-09-27 02:54:00,54.9,52.9,30.13,NNE,18,0.0,0.0,93,0.00,CLR,,0.00,WeatherDisplay:10.37,2013-09-27 06:54:00,
2013-09-27 02:55:00,54.7,52.7,30.13,NNE,18,0.0,0.0,93,0.00,CLR,,0.00,WeatherDisplay:10.37,2013-09-27 06:55:00,
2013-09-27 02:56:00,55.0,53.0,30.13,NNE,18,0.0,0.0,93,0.00,CLR,,0.00,WeatherDisplay:10.37,2013-09-27 06:56:00,
2013-09-27 02:57:00,55.0,53.0,30.13,NNE,18,0.0,0.0,93,0.00,CLR,,0.00,WeatherDisplay:10.37,2013-09-27 06:57:00,
2013-09-27 02:59:00,55.9,53.9,30.13,NNE,18,0.0,0.0,93,0.00,CLR,,0.00,WeatherDisplay:10.37,2013-09-27 06:59:00,
2013-09-27 03:00:00,54.8,52.8,30.13,NNE,18,0.0,0.0,93,0.00,CLR,,0.00,WeatherDisplay:10.37,2013-09-27 07:00:00,
2013-09-27 03:02:00,54.7,52.7,30.13,NNE,18,0.0,0.0,93,0.00,CLR,,0.00,WeatherDisplay:10.37,2013-09-27 07:02:00,
2013-09-27 03:05:00,55.5,53.5,30.13,NNE,18,0.0,0.0,93,0.00,CLR,,0.00,WeatherDisplay:10.37,2013-09-27 07:05:00,
2013-09-27 03:07:00,55.3,53.3,30.13,NNE,18,0.0,0.0,93,0.00,CLR,,0.00,WeatherDisplay:10.37,2013-09-27 07:07:00,
2013-09-27 03:08:00,55.0,53.0,30.13,NNE,18,0.0,0.0,93,0.00,CLR,,0.00,WeatherDisplay:10.37,2013-09-27 07:08:00,
2013-09-27 03:10:00,54.9,52.9,30.13,NNE,18,0.0,0.0,93,0.00,CLR,,0.00,WeatherDisplay:10.37,2013-09-27 07:10:00,
2013-09-27 03:12:00,54.8,52.8,30.13,NNE,18,0.0,0.0,93,0.00,CLR,,0.00,WeatherDisplay:10.37,2013-09-27 07:12:00,
2013-09-27 03:13:00,54.5,52.5,30.13,NNE,18,0.0,0.0,93,0.00,CLR,,0.00,WeatherDisplay:10.37,2013-09-27 07:13:00,
2013-09-27 03:15:00,54.8,52.8,30.13,NNE,18,0.0,0.0,93,0.00,CLR,,0.00,WeatherDisplay:10.37,2013-09-27 07:15:00,
2013-09-27 03:17:00,54.8,53.1,30.13,NNE,18,0.0,0.0,94,0.00,CLR,,0.00,WeatherDisplay:10.37,2013-09-27 07:17:00,
2013-09-27 03:19:00,53.4,51.7,30.13,NNE,18,0.0,0.0,94,0.00,CLR,,0.00,WeatherDisplay:10.37,2013-09-27 07:19:00,
2013-09-27 03:20:00,54.0,52.3,30.13,NNE,18,0.0,0.0,94,0.00,CLR,,0.00,WeatherDisplay:10.37,2013-09-27 07:20:00,
2013-09-27 03:21:00,54.0,52.3,30.13,NNE,18,0.0,0.0,94,0.00,CLR,,0.00,WeatherDisplay:10.37,2013-09-27 07:21:00,
2013-09-27 03:22:00,54.3,52.6,30.13,NNE,18,0.0,0.0,94,0.00,CLR,,0.00,WeatherDisplay:10.37,2013-09-27 07:22:00,
2013-09-27 03:23:00,54.7,53.0,30.13,NNE,18,0.0,0.0,94,0.00,CLR,,0.00,WeatherDisplay:10.37,2013-09-27 07:23:00,
2013-09-27 03:24:00,55.0,53.3,30.13,NNE,18,0.0,0.0,94,0.00,CLR,,0.00,WeatherDisplay:10.37,2013-09-27 07:24:00,
2013-09-27 03:25:00,54.5,52.8,30.13,NNE,18,0.0,0.0,94,0.00,CLR,,0.00,WeatherDisplay:10.37,2013-09-27 07:25:00,
2013-09-27 03:26:00,53.9,52.2,30.13,NNE,18,0.0,0.0,94,0.00,CLR,,0.00,WeatherDisplay:10.37,2013-09-27 07:26:00,
2013-09-27 03:27:00,54.2,52.5,30.13,NNE,18,0.0,0.0,94,0.00,CLR,,0.00,WeatherDisplay:10.37,2013-09-27 07:27:00,
2013-09-27 03:28:00,53.7,52.0,30.13,NNE,18,0.0,0.0,94,0.00,CLR,,0.00,WeatherDisplay:10.37,2013-09-27 07:28:00,
2013-09-27 03:29:00,54.5,52.8,30.13,NNE,18,0.0,0.0,94,0.00,CLR,,0.00,WeatherDisplay:10.37,2013-09-27 07:29:00,
2013-09-27 03:30:00,54.6,52.9,30.13,NNE,18,0.0,0.0,94,0.00,CLR,,0.00,WeatherDisplay:10.37,2013-09-27 07:30:00,
2013-09-27 03:31:00,53.8,52.1,30.13,NNE,18,0.0,0.0,94,0.00,CLR,,0.00,WeatherDisplay:10.37,2013-09-27 07:31:00,
2013-09-27 03:33:00,54.2,52.5,30.13,NNE,18,0.0,0.0,94,0.00,CLR,,0.00,WeatherDisplay:10.37,2013-09-27 07:33:00,
2013-09-27 03:35:00,53.3,51.6,30.13,NNE,18,0.0,0.0,94,0.00,CLR,,0.00,WeatherDisplay:10.37,2013-09-27 07:35:00,
2013-09-27 03:36:00,53.9,52.2,30.13,NNE,18,0.0,0.0,94,0.00,CLR,,0.00,WeatherDisplay:10.37,2013-09-27 07:36:00,
2013-09-27 03:38:00,54.1,52.4,30.13,NNE,18,0.0,0.0,94,0.00,CLR,,0.00,WeatherDisplay:10.37,2013-09-27 07:38:00,
2013-09-27 03:39:00,54.1,52.7,30.13,NNE,18,0.0,0.0,95,0.00,CLR,,0.00,WeatherDisplay:10.37,2013-09-27 07:39:00,
2013-09-27 03:40:00,54.1,52.7,30.13,NNE,18,0.0,0.0,95,0.00,CLR,,0.00,WeatherDisplay:10.37,2013-09-27 07:40:00,
2013-09-27 03:42:00,53.4,52.0,30.13,NNE,18,0.0,0.0,95,0.00,CLR,,0.00,WeatherDisplay:10.37,2013-09-27 07:42:00,
2013-09-27 03:44:00,53.9,52.5,30.13,NNE,18,0.0,0.0,95,0.00,CLR,,0.00,WeatherDisplay:10.37,2013-09-27 07:44:00,
2013-09-27 03:45:00,53.4,52.0,30.13,NNE,18,0.0,0.0,95,0.00,CLR,,0.00,WeatherDisplay:10.37,2013-09-27 07:45:00,
2013-09-27 03:46:00,54.3,52.9,30.13,NNE,18,0.0,0.0,95,0.00,CLR,,0.00,WeatherDisplay:10.37,2013-09-27 07:46:00,
2013-09-27 03:47:00,53.9,52.5,30.13,NNE,18,0.0,0.0,95,0.00,CLR,,0.00,WeatherDisplay:10.37,2013-09-27 07:47:00,
2013-09-27 03:49:00,53.2,51.8,30.13,NNE,18,0.0,0.0,95,0.00,CLR,,0.00,WeatherDisplay:10.37,2013-09-27 07:49:00,
2013-09-27 03:50:00,54.1,52.7,30.13,NNE,18,0.0,0.0,95,0.00,CLR,,0.00,WeatherDisplay:10.37,2013-09-27 07:50:00,
2013-09-27 03:52:00,53.5,52.1,30.13,NNE,18,0.0,0.0,95,0.00,CLR,,0.00,WeatherDisplay:10.37,2013-09-27 07:52:00,
2013-09-27 03:54:00,53.1,51.7,30.13,NNE,18,0.0,0.0,95,0.00,CLR,,0.00,WeatherDisplay:10.37,2013-09-27 07:54:00,
2013-09-27 03:55:00,52.9,51.5,30.13,NNE,18,0.0,0.0,95,0.00,CLR,,0.00,WeatherDisplay:10.37,2013-09-27 07:55:00,
2013-09-27 03:56:00,54.1,52.7,30.13,NNE,18,0.0,0.0,95,0.00,CLR,,0.00,WeatherDisplay:10.37,2013-09-27 07:56:00,
2013-09-27 03:58:00,53.2,51.8,30.13,NNE,18,0.0,0.0,95,0.00,CLR,,0.00,WeatherDisplay:10.37,2013-09-27 07:58:00,
2013-09-27 03:59:00,53.4,52.0,30.13,NNE,18,0.0,0.0,95,0.00,CLR,,0.00,WeatherDisplay:10.37,2013-09-27 07:59:00,
2013-09-27 04:01:00,53.7,52.3,30.14,NNE,18,0.0,0.0,95,0.00,CLR,,0.00,WeatherDisplay:10.37,2013-09-27 08:01:00,
2013-09-27 04:02:00,53.2,51.8,30.14,NNE,18,0.0,0.0,95,0.00,CLR,,0.00,WeatherDisplay:10.37,2013-09-27 08:02:00,
2013-09-27 04:03:00,53.2,52.1,30.14,NNE,18,0.0,0.0,96,0.00,CLR,,0.00,WeatherDisplay:10.37,2013-09-27 08:03:00,
2013-09-27 04:04:00,53.9,52.8,30.14,NNE,18,0.0,0.0,96,0.00,CLR,,0.00,WeatherDisplay:10.37,2013-09-27 08:04:00,
2013-09-27 04:06:00,53.8,52.7,30.14,NNE,18,0.0,0.0,96,0.00,CLR,,0.00,WeatherDisplay:10.37,2013-09-27 08:06:00,
2013-09-27 04:07:00,54.3,53.2,30.14,NNE,18,0.0,0.0,96,0.00,CLR,,0.00,WeatherDisplay:10.37,2013-09-27 08:07:00,
2013-09-27 04:09:00,53.1,52.0,30.14,NNE,18,0.0,0.0,96,0.00,CLR,,0.00,WeatherDisplay:10.37,2013-09-27 08:09:00,
2013-09-27 04:10:00,53.9,52.8,30.14,NNE,18,0.0,0.0,96,0.00,CLR,,0.00,WeatherDisplay:10.37,2013-09-27 08:10:00,
2013-09-27 04:11:00,53.4,52.3,30.14,NNE,18,0.0,0.0,96,0.00,CLR,,0.00,WeatherDisplay:10.37,2013-09-27 08:11:00,
2013-09-27 04:12:00,52.7,51.6,30.14,NNE,18,0.0,0.0,96,0.00,CLR,,0.00,WeatherDisplay:10.37,2013-09-27 08:12:00,
2013-09-27 04:15:00,53.2,52.1,30.14,NNE,18,0.0,0.0,96,0.00,CLR,,0.00,WeatherDisplay:10.37,2013-09-27 08:15:00,
2013-09-27 04:16:00,52.9,51.8,30.14,NNE,18,0.0,0.0,96,0.00,CLR,,0.00,WeatherDisplay:10.37,2013-09-27 08:16:00,
2013-09-27 04:17:00,53.5,52.4,30.14,NNE,18,0.0,0.0,96,0.00,CLR,,0.00,WeatherDisplay:10.37,2013-09-27 08:17:00,
2013-09-27 04:20:00,53.4,52.3,30.14,NNE,18,0.0,0.0,96,0.00,CLR,,0.00,WeatherDisplay:10.37,2013-09-27 08:20:00,
2013-09-27 04:21:00,52.6,51.5,30.14,NNE,18,0.0,0.0,96,0.00,CLR,,0.00,WeatherDisplay:10.37,2013-09-27 08:21:00,
2013-09-27 04:23:00,53.7,52.6,30.14,NNE,18,0.0,0.0,96,0.00,CLR,,0.00,WeatherDisplay:10.37,2013-09-27 08:23:00,
2013-09-27 04:25:00,53.9,52.8,30.14,NNE,18,0.0,0.0,96,0.00,CLR,,0.00,WeatherDisplay:10.37,2013-09-27 08:25:00,
2013-09-27 04:26:00,53.6,52.5,30.14,NNE,18,0.0,0.0,96,0.00,CLR,,0.00,WeatherDisplay:10.37,2013-09-27 08:26:00,
2013-09-27 04:28:00,53.2,52.1,30.14,NNE,18,0.0,0.0,96,0.00,CLR,,0.00,WeatherDisplay:10.37,2013-09-27 08:28:00,
2013-09-27 04:30:00,53.5,52.4,30.14,NNE,18,0.0,0.0,96,0.00,CLR,,0.00,WeatherDisplay:10.37,2013-09-27 08:30:00,
2013-09-27 04:31:00,53.9,52.8,30.14,NNE,18,0.0,0.0,96,0.00,CLR,,0.00,WeatherDisplay:10.37,2013-09-27 08:31:00,
2013-09-27 04:33:00,53.2,52.1,30.14,NNE,18,0.0,0.0,96,0.00,CLR,,0.00,WeatherDisplay:10.37,2013-09-27 08:33:00,
2013-09-27 04:36:00,53.7,52.6,30.14,NNE,18,0.0,0.0,96,0.00,CLR,,0.00,WeatherDisplay:10.37,2013-09-27 08:36:00,
2013-09-27 04:37:00,53.5,52.4,30.14,NNE,18,0.0,0.0,96,0.00,CLR,,0.00,WeatherDisplay:10.37,2013-09-27 08:37:00,
2013-09-27 04:39:00,53.9,52.8,30.14,NNE,18,0.0,0.0,96,0.00,CLR,,0.00,WeatherDisplay:10.37,2013-09-27 08:39:00,
2013-09-27 04:41:00,53.1,52.0,30.14,NNE,18,0.0,0.0,96,0.00,CLR,,0.00,WeatherDisplay:10.37,2013-09-27 08:41:00,
2013-09-27 04:42:00,53.7,52.6,30.14,NNE,18,0.0,0.0,96,0.00,CLR,,0.00,WeatherDisplay:10.37,2013-09-27 08:42:00,
2013-09-27 04:44:00,53.2,52.1,30.14,NNE,18,0.0,0.0,96,0.00,CLR,,0.00,WeatherDisplay:10.37,2013-09-27 08:44:00,
2013-09-27 04:46:00,53.0,51.9,30.14,NNE,18,0.0,0.0,96,0.00,CLR,,0.00,WeatherDisplay:10.37,2013-09-27 08:46:00,
2013-09-27 04:47:00,53.6,52.5,30.14,NNE,18,0.0,0.0,96,0.00,CLR,,0.00,WeatherDisplay:10.37,2013-09-27 08:47:00,
2013-09-27 04:50:00,53.0,51.9,30.14,NNE,18,0.0,0.0,96,0.00,CLR,,0.00,WeatherDisplay:10.37,2013-09-27 08:50:00,
2013-09-27 04:51:00,53.9,52.8,30.14,NNE,18,0.0,0.0,96,0.00,CLR,,0.00,WeatherDisplay:10.37,2013-09-27 08:51:00,
2013-09-27 04:52:00,53.3,52.2,30.14,NNE,18,0.0,0.0,96,0.00,CLR,,0.00,WeatherDisplay:10.37,2013-09-27 08:52:00,
2013-09-27 04:53:00,52.4,51.3,30.14,NNE,18,0.0,0.0,96,0.00,CLR,,0.00,WeatherDisplay:10.37,2013-09-27 08:53:00,
2013-09-27 04:55:00,53.6,52.5,30.14,NNE,18,0.0,0.0,96,0.00,CLR,,0.00,WeatherDisplay:10.37,2013-09-27 08:55:00,
2013-09-27 04:56:00,53.0,51.9,30.14,NNE,18,0.0,0.0,96,0.00,CLR,,0.00,WeatherDisplay:10.37,2013-09-27 08:56:00,
2013-09-27 04:57:00,53.1,52.0,30.14,NNE,18,0.0,0.0,96,0.00,CLR,,0.00,WeatherDisplay:10.37,2013-09-27 08:57:00,
2013-09-27 04:58:00,52.7,51.6,30.14,NNE,18,0.0,0.0,96,0.00,CLR,,0.00,WeatherDisplay:10.37,2013-09-27 08:58:00,
2013-09-27 05:01:00,53.8,52.7,30.14,NNE,18,0.0,0.0,96,0.00,CLR,,0.00,WeatherDisplay:10.37,2013-09-27 09:01:00,
2013-09-27 05:02:00,53.5,52.4,30.14,NNE,18,0.0,0.0,96,0.00,CLR,,0.00,WeatherDisplay:10.37,2013-09-27 09:02:00,
2013-09-27 05:03:00,53.9,52.8,30.14,NNE,18,0.0,0.0,96,0.00,CLR,,0.00,WeatherDisplay:10.37,2013-09-27 09:03:00,
2013-09-27 05:04:00,53.0,51.9,30.14,NNE,18,0.0,0.0,96,0.00,CLR,,0.00,WeatherDisplay:10.37,2013-09-27 09:04:00,
2013-09-27 05:06:00,53.5,52.4,30.14,NNE,18,0.0,0.0,96,0.00,CLR,,0.00,WeatherDisplay:10.37,2013-09-27 09:06:00,
2013-09-27 05:07:00,53.6,52.5,30.14,NNE,18,0.0,0.0,96,0.00,CLR,,0.00,WeatherDisplay:10.37,2013-09-27 09:07:00,
2013-09-27 05:08:00,53.3,52.2,30.14,NNE,18,0.0,0.0,96,0.00,CLR,,0.00,WeatherDisplay:10.37,2013-09-27 09:08:00,
2013-09-27 05:09:00,53.2,52.1,30.14,NNE,18,0.0,0.0,96,0.00,CLR,,0.00,WeatherDisplay:10.37,2013-09-27 09:09:00,
2013-09-27 05:11:00,53.6,52.5,30.14,NNE,18,0.0,0.0,96,0.00,CLR,,0.00,WeatherDisplay:10.37,2013-09-27 09:11:00,
2013-09-27 05:12:00,53.0,51.9,30.14,NNE,18,0.0,0.0,96,0.00,CLR,,0.00,WeatherDisplay:10.37,2013-09-27 09:12:00,
2013-09-27 05:13:00,53.6,52.8,30.15,NNE,18,0.0,0.0,97,0.00,CLR,,0.00,WeatherDisplay:10.37,2013-09-27 09:13:00,
2013-09-27 05:15:00,52.3,51.5,30.15,NNE,18,0.0,0.0,97,0.00,CLR,,0.00,WeatherDisplay:10.37,2013-09-27 09:15:00,
2013-09-27 05:16:00,52.8,52.0,30.15,NNE,18,0.0,0.0,97,0.00,CLR,,0.00,WeatherDisplay:10.37,2013-09-27 09:16:00,
2013-09-27 05:17:00,52.8,52.0,30.15,NNE,18,0.0,0.0,97,0.00,CLR,,0.00,WeatherDisplay:10.37,2013-09-27 09:17:00,
2013-09-27 05:18:00,52.2,51.4,30.15,NNE,18,0.0,0.0,97,0.00,CLR,,0.00,WeatherDisplay:10.37,2013-09-27 09:18:00,
2013-09-27 05:20:00,52.4,51.6,30.15,NNE,18,0.0,0.0,97,0.00,CLR,,0.00,WeatherDisplay:10.37,2013-09-27 09:20:00,
2013-09-27 05:21:00,53.4,52.6,30.15,NNE,18,0.0,0.0,97,0.00,CLR,,0.00,WeatherDisplay:10.37,2013-09-27 09:21:00,
2013-09-27 05:22:00,52.8,52.0,30.15,NNE,18,0.0,0.0,97,0.00,CLR,,0.00,WeatherDisplay:10.37,2013-09-27 09:22:00,
2013-09-27 05:23:00,53.5,52.7,30.15,NNE,18,0.0,0.0,97,0.00,CLR,,0.00,WeatherDisplay:10.37,2013-09-27 09:23:00,
2013-09-27 05:24:00,53.1,52.3,30.15,NNE,18,0.0,0.0,97,0.00,CLR,,0.00,WeatherDisplay:10.37,2013-09-27 09:24:00,
2013-09-27 05:26:00,52.8,52.3,30.15,NNE,18,0.0,0.0,98,0.00,CLR,,0.00,WeatherDisplay:10.37,2013-09-27 09:26:00,
2013-09-27 05:27:00,52.3,51.8,30.15,NNE,18,0.0,0.0,98,0.00,CLR,,0.00,WeatherDisplay:10.37,2013-09-27 09:27:00,
2013-09-27 05:28:00,53.1,52.6,30.15,NNE,18,0.0,0.0,98,0.00,CLR,,0.00,WeatherDisplay:10.37,2013-09-27 09:28:00,
2013-09-27 05:29:00,52.9,52.4,30.15,NNE,18,0.0,0.0,98,0.00,CLR,,0.00,WeatherDisplay:10.37,2013-09-27 09:29:00,
2013-09-27 05:31:00,52.2,51.7,30.15,NNE,18,0.0,0.0,98,0.00,CLR,,0.00,WeatherDisplay:10.37,2013-09-27 09:31:00,
2013-09-27 05:32:00,52.0,51.5,30.15,NNE,18,0.0,0.0,98,0.00,CLR,,0.00,WeatherDisplay:10.37,2013-09-27 09:32:00,
2013-09-27 05:33:00,52.9,52.4,30.15,NNE,18,0.0,0.0,98,0.00,CLR,,0.00,WeatherDisplay:10.37,2013-09-27 09:33:00,
2013-09-27 05:34:00,52.4,51.9,30.15,NNE,18,0.0,0.0,98,0.00,CLR,,0.00,WeatherDisplay:10.37,2013-09-27 09:34:00,
2013-09-27 05:36:00,53.1,52.6,30.15,NNE,18,0.0,0.0,98,0.00,CLR,,0.00,WeatherDisplay:10.37,2013-09-27 09:36:00,
2013-09-27 05:37:00,53.0,52.5,30.15,NNE,18,0.0,0.0,98,0.00,CLR,,0.00,WeatherDisplay:10.37,2013-09-27 09:37:00,
2013-09-27 05:38:00,52.4,51.9,30.15,NNE,18,0.0,0.0,98,0.00,CLR,,0.00,WeatherDisplay:10.37,2013-09-27 09:38:00,
2013-09-27 05:40:00,53.0,52.5,30.15,NNE,18,0.0,0.0,98,0.00,CLR,,0.00,WeatherDisplay:10.37,2013-09-27 09:40:00,
2013-09-27 05:41:00,52.7,52.2,30.15,NNE,18,0.0,0.0,98,0.00,CLR,,0.00,WeatherDisplay:10.37,2013-09-27 09:41:00,
2013-09-27 05:42:00,52.4,51.9,30.15,NNE,18,0.0,0.0,98,0.00,CLR,,0.00,WeatherDisplay:10.37,2013-09-27 09:42:00,
2013-09-27 05:43:00,52.2,51.7,30.15,NNE,18,0.0,0.0,98,0.00,CLR,,0.00,WeatherDisplay:10.37,2013-09-27 09:43:00,
2013-09-27 05:45:00,52.0,51.5,30.15,NNE,18,0.0,0.0,98,0.00,CLR,,0.00,WeatherDisplay:10.37,2013-09-27 09:45:00,
2013-09-27 05:46:00,51.5,51.0,30.15,NNE,18,0.0,0.0,98,0.00,CLR,,0.00,WeatherDisplay:10.37,2013-09-27 09:46:00,
2013-09-27 05:47:00,51.7,51.2,30.15,NNE,18,0.0,0.0,98,0.00,CLR,,0.00,WeatherDisplay:10.37,2013-09-27 09:47:00,
2013-09-27 05:48:00,51.9,51.4,30.15,NNE,18,0.0,0.0,98,0.00,CLR,,0.00,WeatherDisplay:10.37,2013-09-27 09:48:00,
2013-09-27 05:51:00,51.4,51.1,30.15,NNE,18,0.0,0.0,99,0.00,CLR,,0.00,WeatherDisplay:10.37,2013-09-27 09:51:00,
2013-09-27 05:52:00,51.2,50.9,30.15,NNE,18,0.0,0.0,99,0.00,CLR,,0.00,WeatherDisplay:10.37,2013-09-27 09:52:00,
2013-09-27 05:53:00,51.4,51.1,30.15,NNE,18,0.0,0.0,99,0.00,CLR,,0.00,WeatherDisplay:10.37,2013-09-27 09:53:00,
2013-09-27 05:56:00,51.3,51.0,30.16,NNE,18,0.0,0.0,99,0.00,CLR,,0.00,WeatherDisplay:10.37,2013-09-27 09:56:00,
2013-09-27 05:57:00,51.7,51.4,30.16,NNE,18,0.0,0.0,99,0.00,CLR,,0.00,WeatherDisplay:10.37,2013-09-27 09:57:00,
2013-09-27 05:58:00,52.2,51.9,30.16,NNE,18,0.0,0.0,99,0.00,CLR,,0.00,WeatherDisplay:10.37,2013-09-27 09:58:00,
2013-09-27 06:01:00,52.7,52.4,30.16,NNE,18,0.0,0.0,99,0.00,CLR,,0.00,WeatherDisplay:10.37,2013-09-27 10:01:00,
2013-09-27 06:02:00,52.0,51.7,30.16,NNE,18,0.0,0.0,99,0.00,CLR,,0.00,WeatherDisplay:10.37,2013-09-27 10:02:00,
2013-09-27 06:03:00,51.5,51.2,30.16,NNE,18,0.0,0.0,99,0.00,CLR,,0.00,WeatherDisplay:10.37,2013-09-27 10:03:00,
2013-09-27 06:04:00,51.5,51.2,30.16,NNE,18,0.0,0.0,99,0.00,CLR,,0.00,WeatherDisplay:10.37,2013-09-27 10:04:00,
2013-09-27 06:06:00,52.2,51.9,30.16,NNE,18,0.0,0.0,99,0.00,CLR,,0.00,WeatherDisplay:10.37,2013-09-27 10:06:00,
2013-09-27 06:07:00,51.8,51.5,30.16,NNE,18,0.0,0.0,99,0.00,CLR,,0.00,WeatherDisplay:10.37,2013-09-27 10:07:00,
2013-09-27 06:08:00,51.8,51.8,30.16,NNE,18,0.0,0.0,100,0.00,CLR,,0.00,WeatherDisplay:10.37,2013-09-27 10:08:00,
2013-09-27 06:09:00,51.3,51.3,30.16,NNE,18,0.0,0.0,100,0.00,CLR,,0.00,WeatherDisplay:10.37,2013-09-27 10:09:00,
2013-09-27 06:11:00,51.5,51.2,30.16,NNE,18,0.0,0.0,99,0.00,CLR,,0.00,WeatherDisplay:10.37,2013-09-27 10:11:00,
2013-09-27 06:13:00,51.3,51.0,30.16,NNE,18,0.0,0.0,99,0.00,CLR,,0.00,WeatherDisplay:10.37,2013-09-27 10:13:00,
2013-09-27 06:14:00,51.4,51.4,30.16,NNE,18,0.0,0.0,100,0.00,CLR,,0.00,WeatherDisplay:10.37,2013-09-27 10:14:00,
2013-09-27 06:15:00,51.8,51.8,30.16,NNE,18,0.0,0.0,100,0.00,CLR,,0.00,WeatherDisplay:10.37,2013-09-27 10:15:00,
2013-09-27 06:17:00,51.9,51.9,30.16,NNE,18,0.0,0.0,100,0.00,CLR,,0.00,WeatherDisplay:10.37,2013-09-27 10:17:00,
2013-09-27 06:18:00,51.8,51.8,30.16,NNE,18,0.0,0.0,100,0.00,CLR,,0.00,WeatherDisplay:10.37,2013-09-27 10:18:00,
2013-09-27 06:19:00,52.9,52.9,30.16,NNE,18,0.0,0.0,100,0.00,CLR,,0.00,WeatherDisplay:10.37,2013-09-27 10:19:00,
2013-09-27 06:21:00,51.8,51.8,30.16,NNE,18,0.0,0.0,100,0.00,CLR,,0.00,WeatherDisplay:10.37,2013-09-27 10:21:00,
2013-09-27 06:22:00,51.7,51.7,30.16,NNE,18,0.0,0.0,100,0.00,CLR,,0.00,WeatherDisplay:10.37,2013-09-27 10:22:00,
2013-09-27 06:23:00,51.4,51.4,30.16,NNE,18,0.0,0.0,100,0.00,CLR,,0.00,WeatherDisplay:10.37,2013-09-27 10:23:00,
2013-09-27 06:24:00,51.2,51.2,30.16,NNE,18,0.0,0.0,100,0.00,CLR,,0.00,WeatherDisplay:10.37,2013-09-27 10:24:00,
2013-09-27 06:25:00,52.3,52.3,30.16,NNE,18,0.0,0.0,100,0.00,CLR,,0.00,WeatherDisplay:10.37,2013-09-27 10:25:00,
2013-09-27 06:26:00,52.1,52.1,30.17,NNE,18,0.0,0.0,100,0.00,CLR,,0.00,WeatherDisplay:10.37,2013-09-27 10:26:00,
2013-09-27 06:28:00,51.0,51.0,30.17,NNE,18,0.0,0.0,100,0.00,CLR,,0.00,WeatherDisplay:10.37,2013-09-27 10:28:00,
2013-09-27 06:29:00,52.3,52.3,30.17,NNE,18,0.0,0.0,100,0.00,CLR,,0.00,WeatherDisplay:10.37,2013-09-27 10:29:00,
2013-09-27 06:30:00,51.3,51.3,30.17,NNE,18,0.0,0.0,100,0.00,CLR,,0.00,WeatherDisplay:10.37,2013-09-27 10:30:00,
2013-09-27 06:31:00,51.0,51.0,30.17,NNE,18,0.0,0.0,100,0.00,CLR,,0.00,WeatherDisplay:10.37,2013-09-27 10:31:00,
2013-09-27 06:33:00,51.2,51.2,30.17,NNE,18,0.0,0.0,100,0.00,CLR,,0.00,WeatherDisplay:10.37,2013-09-27 10:33:00,
2013-09-27 06:34:00,51.2,51.2,30.17,NNE,18,0.0,0.0,100,0.00,CLR,,0.00,WeatherDisplay:10.37,2013-09-27 10:34:00,
2013-09-27 06:35:00,51.8,51.8,30.17,NNE,18,0.0,0.0,100,0.00,CLR,,0.00,WeatherDisplay:10.37,2013-09-27 10:35:00,
2013-09-27 06:36:00,52.4,52.4,30.17,NNE,18,0.0,0.0,100,0.00,CLR,,0.00,WeatherDisplay:10.37,2013-09-27 10:36:00,
2013-09-27 06:38:00,51.1,51.1,30.17,NNE,18,0.0,0.0,100,0.00,CLR,,0.00,WeatherDisplay:10.37,2013-09-27 10:38:00,
2013-09-27 06:39:00,51.2,51.2,30.17,NNE,18,0.0,0.0,100,0.00,CLR,,0.00,WeatherDisplay:10.37,2013-09-27 10:39:00,
2013-09-27 06:40:00,51.1,51.1,30.17,NNE,18,0.0,0.0,100,0.00,CLR,,0.00,WeatherDisplay:10.37,2013-09-27 10:40:00,
2013-09-27 06:41:00,51.1,51.1,30.17,NNE,18,0.0,0.0,100,0.00,CLR,,0.00,WeatherDisplay:10.37,2013-09-27 10:41:00,
2013-09-27 06:43:00,51.0,51.0,30.17,NNE,18,0.0,0.0,100,0.00,CLR,,0.00,WeatherDisplay:10.37,2013-09-27 10:43:00,
2013-09-27 06:44:00,51.3,51.3,30.17,NNE,18,0.0,0.0,100,0.00,CLR,,0.00,WeatherDisplay:10.37,2013-09-27 10:44:00,
2013-09-27 06:45:00,51.2,51.2,30.17,NNE,18,0.0,0.0,100,0.00,CLR,,0.00,WeatherDisplay:10.37,2013-09-27 10:45:00,
2013-09-27 06:47:00,51.2,51.2,30.17,NNE,18,0.0,0.0,100,0.00,CLR,,0.00,WeatherDisplay:10.37,2013-09-27 10:47:00,
2013-09-27 06:48:00,51.4,51.4,30.17,NNE,18,0.0,0.0,100,0.00,CLR,,0.00,WeatherDisplay:10.37,2013-09-27 10:48:00,
2013-09-27 06:50:00,51.2,51.2,30.17,NNE,18,0.0,0.0,100,0.00,CLR,,0.00,WeatherDisplay:10.37,2013-09-27 10:50:00,
2013-09-27 06:51:00,52.0,52.0,30.17,NNE,18,0.0,0.0,100,0.00,CLR,,0.00,WeatherDisplay:10.37,2013-09-27 10:51:00,
2013-09-27 06:52:00,50.9,50.9,30.17,NNE,18,0.0,0.0,100,0.00,CLR,,0.00,WeatherDisplay:10.37,2013-09-27 10:52:00,
2013-09-27 06:53:00,51.8,51.8,30.18,NNE,18,0.0,0.0,100,0.00,CLR,,0.00,WeatherDisplay:10.37,2013-09-27 10:53:00,
2013-09-27 06:55:00,51.1,51.1,30.18,NNE,18,0.0,0.0,100,0.00,CLR,,0.00,WeatherDisplay:10.37,2013-09-27 10:55:00,
2013-09-27 06:56:00,51.2,51.2,30.18,NNE,18,0.0,0.0,100,0.00,CLR,,0.00,WeatherDisplay:10.37,2013-09-27 10:56:00,
2013-09-27 06:57:00,52.2,52.2,30.18,NNE,18,0.0,0.0,100,0.00,CLR,,0.00,WeatherDisplay:10.37,2013-09-27 10:57:00,
2013-09-27 06:58:00,51.2,51.2,30.18,NNE,18,0.0,0.0,100,0.00,CLR,,0.00,WeatherDisplay:10.37,2013-09-27 10:58:00,
2013-09-27 07:01:00,51.4,51.4,30.18,NNE,18,0.0,0.0,100,0.00,CLR,,0.00,WeatherDisplay:10.37,2013-09-27 11:01:00,
2013-09-27 07:02:00,51.0,51.0,30.18,NNE,18,0.0,0.0,100,0.00,CLR,,0.00,WeatherDisplay:10.37,2013-09-27 11:02:00,
2013-09-27 07:03:00,51.0,51.0,30.18,NNE,18,0.0,0.0,100,0.00,CLR,,0.00,WeatherDisplay:10.37,2013-09-27 11:03:00,
2013-09-27 07:06:00,51.4,51.4,30.18,NNE,18,0.0,0.0,100,0.00,CLR,,0.00,WeatherDisplay:10.37,2013-09-27 11:06:00,
2013-09-27 07:07:00,51.0,51.0,30.18,NNE,18,0.0,0.0,100,0.00,CLR,,0.00,WeatherDisplay:10.37,2013-09-27 11:07:00,
2013-09-27 07:08:00,51.3,51.3,30.18,NNE,18,0.0,0.0,100,0.00,CLR,,0.00,WeatherDisplay:10.37,2013-09-27 11:08:00,
2013-09-27 07:11:00,50.7,50.7,30.18,NNE,18,0.0,0.0,100,0.00,CLR,,0.00,WeatherDisplay:10.37,2013-09-27 11:11:00,
2013-09-27 07:12:00,50.8,50.8,30.18,NNE,18,0.0,0.0,100,0.00,CLR,,0.00,WeatherDisplay:10.37,2013-09-27 11:12:00,
2013-09-27 07:13:00,51.0,51.0,30.18,NNE,18,0.0,0.0,100,0.00,CLR,,0.00,WeatherDisplay:10.37,2013-09-27 11:13:00,
2013-09-27 07:16:00,50.9,50.9,30.18,NNE,18,0.0,0.0,100,0.00,CLR,,0.00,WeatherDisplay:10.37,2013-09-27 11:16:00,
2013-09-27 07:17:00,50.9,50.9,30.18,NNE,18,0.0,0.0,100,0.00,CLR,,0.00,WeatherDisplay:10.37,2013-09-27 11:17:00,
2013-09-27 07:18:00,51.2,51.2,30.19,NNE,18,0.0,0.0,100,0.00,CLR,,0.00,WeatherDisplay:10.37,2013-09-27 11:18:00,
2013-09-27 07:21:00,50.8,50.8,30.19,NNE,18,0.0,0.0,100,0.00,CLR,,0.00,WeatherDisplay:10.37,2013-09-27 11:21:00,
2013-09-27 07:22:00,51.4,51.4,30.19,NNE,18,0.0,0.0,100,0.00,CLR,,0.00,WeatherDisplay:10.37,2013-09-27 11:22:00,
2013-09-27 07:23:00,51.9,51.9,30.19,NNE,18,0.0,0.0,100,0.00,CLR,,0.00,WeatherDisplay:10.37,2013-09-27 11:23:00,
2013-09-27 07:24:00,51.2,51.2,30.19,NNE,18,0.0,0.0,100,0.00,CLR,,0.00,WeatherDisplay:10.37,2013-09-27 11:24:00,
2013-09-27 07:26:00,50.7,50.7,30.19,NNE,18,0.0,0.0,100,0.00,CLR,,0.00,WeatherDisplay:10.37,2013-09-27 11:26:00,
2013-09-27 07:27:00,51.1,51.1,30.19,NNE,18,0.0,0.0,100,0.00,CLR,,0.00,WeatherDisplay:10.37,2013-09-27 11:27:00,
2013-09-27 07:28:00,51.2,51.2,30.19,NNE,18,0.0,0.0,100,0.00,CLR,,0.00,WeatherDisplay:10.37,2013-09-27 11:28:00,
2013-09-27 07:29:00,50.9,50.9,30.19,NNE,18,0.0,0.0,100,0.00,CLR,,0.00,WeatherDisplay:10.37,2013-09-27 11:29:00,
2013-09-27 07:32:00,50.8,50.8,30.19,NNE,18,0.0,0.0,100,0.00,CLR,,0.00,WeatherDisplay:10.37,2013-09-27 11:32:00,
2013-09-27 07:33:00,51.0,51.0,30.19,NNE,18,0.0,0.0,100,0.00,CLR,,0.00,WeatherDisplay:10.37,2013-09-27 11:33:00,
2013-09-27 07:34:00,50.8,50.8,30.19,NNE,18,0.0,0.0,100,0.00,CLR,,0.00,WeatherDisplay:10.37,2013-09-27 11:34:00,
2013-09-27 07:37:00,51.1,51.1,30.19,NNE,18,0.0,0.0,100,0.00,CLR,,0.00,WeatherDisplay:10.37,2013-09-27 11:37:00,
2013-09-27 07:38:00,51.0,51.0,30.19,NNE,18,0.0,0.0,100,0.00,CLR,,0.00,WeatherDisplay:10.37,2013-09-27 11:38:00,
2013-09-27 07:39:00,51.8,51.8,30.19,NNE,18,0.0,0.0,100,0.00,CLR,,0.00,WeatherDisplay:10.37,2013-09-27 11:39:00,
2013-09-27 07:43:00,50.7,50.7,30.19,NNE,18,0.0,0.0,100,0.00,CLR,,0.00,WeatherDisplay:10.37,2013-09-27 11:43:00,
2013-09-27 07:44:00,50.7,50.7,30.19,NNE,18,0.0,0.0,100,0.00,CLR,,0.00,WeatherDisplay:10.37,2013-09-27 11:44:00,
2013-09-27 07:48:00,50.7,50.7,30.19,NNE,18,0.0,0.0,100,0.00,CLR,,0.00,WeatherDisplay:10.37,2013-09-27 11:48:00,
2013-09-27 07:49:00,52.1,52.1,30.19,NNE,18,0.0,0.0,100,0.00,CLR,,0.00,WeatherDisplay:10.37,2013-09-27 11:49:00,
2013-09-27 07:53:00,51.6,51.6,30.19,NNE,18,0.0,0.0,100,0.00,CLR,,0.00,WeatherDisplay:10.37,2013-09-27 11:53:00,
2013-09-27 07:54:00,51.9,51.9,30.19,NNE,18,0.0,0.0,100,0.00,CLR,,0.00,WeatherDisplay:10.37,2013-09-27 11:54:00,
2013-09-27 07:58:00,51.5,51.5,30.19,NNE,18,0.0,0.0,100,0.00,CLR,,0.00,WeatherDisplay:10.37,2013-09-27 11:58:00,
2013-09-27 07:59:00,50.8,50.8,30.19,NNE,18,0.0,0.0,100,0.00,CLR,,0.00,WeatherDisplay:10.37,2013-09-27 11:59:00,
2013-09-27 08:00:00,51.1,51.1,30.19,NNE,18,0.0,0.0,100,0.00,CLR,,0.00,WeatherDisplay:10.37,2013-09-27 12:00:00,
2013-09-27 08:04:00,51.8,51.8,30.20,NNE,18,0.0,0.0,100,0.00,CLR,,0.00,WeatherDisplay:10.37,2013-09-27 12:04:00,
2013-09-27 08:06:00,51.4,51.4,30.20,NNE,18,0.0,0.0,100,0.00,CLR,,0.00,WeatherDisplay:10.37,2013-09-27 12:06:00,
2013-09-27 08:09:00,51.7,51.7,30.20,NNE,18,0.0,0.0,100,0.00,CLR,,0.00,WeatherDisplay:10.37,2013-09-27 12:09:00,
2013-09-27 08:10:00,51.7,51.7,30.20,NNE,18,0.0,0.0,100,0.00,CLR,,0.00,WeatherDisplay:10.37,2013-09-27 12:10:00,
2013-09-27 08:11:00,52.1,52.1,30.20,NNE,18,0.0,0.0,100,0.00,CLR,,0.00,WeatherDisplay:10.37,2013-09-27 12:11:00,
2013-09-27 08:14:00,52.4,52.4,30.20,NNE,18,0.0,0.0,100,0.00,CLR,,0.00,WeatherDisplay:10.37,2013-09-27 12:14:00,
2013-09-27 08:15:00,51.4,51.4,30.20,NNE,18,0.0,0.0,100,0.00,CLR,,0.00,WeatherDisplay:10.37,2013-09-27 12:15:00,
2013-09-27 08:17:00,51.6,51.6,30.20,NNE,18,0.0,0.0,100,0.00,CLR,,0.00,WeatherDisplay:10.37,2013-09-27 12:17:00,
2013-09-27 08:20:00,52.3,52.3,30.20,NNE,18,0.0,0.0,100,0.00,CLR,,0.00,WeatherDisplay:10.37,2013-09-27 12:20:00,
2013-09-27 08:22:00,52.0,52.0,30.20,NNE,18,0.0,0.0,100,0.00,CLR,,0.00,WeatherDisplay:10.37,2013-09-27 12:22:00,
2013-09-27 08:25:00,52.1,52.1,30.20,NNE,18,0.0,0.0,100,0.00,CLR,,0.00,WeatherDisplay:10.37,2013-09-27 12:25:00,
2013-09-27 08:27:00,52.3,52.3,30.20,NNE,18,0.0,0.0,100,0.00,CLR,,0.00,WeatherDisplay:10.37,2013-09-27 12:27:00,
2013-09-27 08:28:00,52.4,52.4,30.20,NNE,18,0.0,0.0,100,0.00,CLR,,0.00,WeatherDisplay:10.37,2013-09-27 12:28:00,
2013-09-27 08:30:00,52.3,52.3,30.20,NNE,18,0.0,0.0,100,0.00,CLR,,0.00,WeatherDisplay:10.37,2013-09-27 12:30:00,
2013-09-27 08:32:00,52.6,52.6,30.20,NNE,18,0.0,0.0,100,0.00,CLR,,0.00,WeatherDisplay:10.37,2013-09-27 12:32:00,
2013-09-27 08:33:00,51.9,51.9,30.20,NNE,18,0.0,0.0,100,0.00,CLR,,0.00,WeatherDisplay:10.37,2013-09-27 12:33:00,
2013-09-27 08:35:00,52.7,52.7,30.20,NNE,18,0.0,0.0,100,0.00,CLR,,0.00,WeatherDisplay:10.37,2013-09-27 12:35:00,
2013-09-27 08:36:00,52.3,52.3,30.20,NNE,18,0.0,0.0,100,0.00,CLR,,0.00,WeatherDisplay:10.37,2013-09-27 12:36:00,
2013-09-27 08:37:00,52.9,52.9,30.20,NNE,18,0.0,0.0,100,0.00,CLR,,0.00,WeatherDisplay:10.37,2013-09-27 12:37:00,
2013-09-27 08:39:00,53.6,53.6,30.20,NNE,18,0.0,0.0,100,0.00,CLR,,0.00,WeatherDisplay:10.37,2013-09-27 12:39:00,
2013-09-27 08:40:00,53.0,53.0,30.20,NNE,18,0.0,0.0,100,0.00,CLR,,0.00,WeatherDisplay:10.37,2013-09-27 12:40:00,
2013-09-27 08:41:00,52.8,52.8,30.21,NNE,18,0.0,0.0,100,0.00,CLR,,0.00,WeatherDisplay:10.37,2013-09-27 12:41:00,
2013-09-27 08:42:00,52.8,52.8,30.21,NNE,18,0.0,0.0,100,0.00,CLR,,0.00,WeatherDisplay:10.37,2013-09-27 12:42:00,
2013-09-27 08:44:00,53.3,53.3,30.21,NNE,18,0.0,0.0,100,0.00,CLR,,0.00,WeatherDisplay:10.37,2013-09-27 12:44:00,
2013-09-27 08:45:00,52.8,52.8,30.21,NNE,18,0.0,0.0,100,0.00,CLR,,0.00,WeatherDisplay:10.37,2013-09-27 12:45:00,
2013-09-27 08:46:00,53.3,53.3,30.21,NNE,18,0.0,0.0,100,0.00,CLR,,0.00,WeatherDisplay:10.37,2013-09-27 12:46:00,
2013-09-27 08:47:00,53.3,53.3,30.21,NNE,18,0.0,0.0,100,0.00,CLR,,0.00,WeatherDisplay:10.37,2013-09-27 12:47:00,
2013-09-27 08:50:00,53.7,53.7,30.21,NNE,18,0.0,0.0,100,0.00,CLR,,0.00,WeatherDisplay:10.37,2013-09-27 12:50:00,
2013-09-27 08:51:00,53.0,53.0,30.21,NNE,18,0.0,0.0,100,0.00,CLR,,0.00,WeatherDisplay:10.37,2013-09-27 12:51:00,
2013-09-27 08:52:00,53.5,53.5,30.21,NNE,18,0.0,0.0,100,0.00,CLR,,0.00,WeatherDisplay:10.37,2013-09-27 12:52:00,
2013-09-27 08:55:00,53.5,53.5,30.21,NNE,18,0.0,0.0,100,0.00,CLR,,0.00,WeatherDisplay:10.37,2013-09-27 12:55:00,
2013-09-27 08:56:00,53.1,53.1,30.21,NNE,18,0.0,0.0,100,0.00,CLR,,0.00,WeatherDisplay:10.37,2013-09-27 12:56:00,
2013-09-27 08:58:00,53.5,53.5,30.21,NNE,18,0.0,0.0,100,0.00,CLR,,0.00,WeatherDisplay:10.37,2013-09-27 12:58:00,
2013-09-27 09:00:00,54.7,54.7,30.21,NNE,18,0.0,0.0,100,0.00,CLR,,0.00,WeatherDisplay:10.37,2013-09-27 13:00:00,
2013-09-27 09:01:00,54.2,54.2,30.21,NNE,18,0.0,0.0,100,0.00,CLR,,0.00,WeatherDisplay:10.37,2013-09-27 13:01:00,
2013-09-27 09:02:00,54.9,54.9,30.21,NNE,18,0.0,0.0,100,0.00,CLR,,0.00,WeatherDisplay:10.37,2013-09-27 13:02:00,
2013-09-27 09:03:00,54.8,54.8,30.21,NNE,18,0.0,0.0,100,0.00,CLR,,0.00,WeatherDisplay:10.37,2013-09-27 13:03:00,
2013-09-27 09:06:00,55.0,55.0,30.21,West,281,0.6,3.5,100,0.00,CLR,,0.00,WeatherDisplay:10.37,2013-09-27 13:06:00,
2013-09-27 09:07:00,55.6,55.6,30.21,NNW,332,0.9,3.5,100,0.00,CLR,,0.00,WeatherDisplay:10.37,2013-09-27 13:07:00,
2013-09-27 09:08:00,55.6,55.6,30.21,WNW,299,1.0,2.5,100,0.00,CLR,,0.00,WeatherDisplay:10.37,2013-09-27 13:08:00,
2013-09-27 09:12:00,56.1,56.1,30.21,NW,322,2.2,4.6,100,0.00,CLR,,0.00,WeatherDisplay:10.37,2013-09-27 13:12:00,
2013-09-27 09:13:00,57.3,57.3,30.21,NW,322,0.0,0.0,100,0.00,CLR,,0.00,WeatherDisplay:10.37,2013-09-27 13:13:00,
2013-09-27 09:17:00,58.0,58.0,30.21,NW,322,0.0,0.0,100,0.00,CLR,,0.00,WeatherDisplay:10.37,2013-09-27 13:17:00,
2013-09-27 09:18:00,57.9,57.9,30.21,NW,322,0.0,0.0,100,0.00,CLR,,0.00,WeatherDisplay:10.37,2013-09-27 13:18:00,
2013-09-27 09:19:00,57.9,57.9,30.21,NW,304,0.7,2.4,100,0.00,CLR,,0.00,WeatherDisplay:10.37,2013-09-27 13:19:00,
2013-09-27 09:22:00,58.3,58.0,30.21,NW,323,1.5,3.5,99,0.00,CLR,,0.00,WeatherDisplay:10.37,2013-09-27 13:22:00,
2013-09-27 09:23:00,58.7,58.4,30.21,WNW,301,1.9,4.6,99,0.00,CLR,,0.00,WeatherDisplay:10.37,2013-09-27 13:23:00,
2013-09-27 09:24:00,59.4,59.1,30.21,WNW,301,0.0,4.6,99,0.00,CLR,,0.00,WeatherDisplay:10.37,2013-09-27 13:24:00,
2013-09-27 09:27:00,59.3,59.0,30.21,WNW,285,0.7,3.4,99,0.00,CLR,,0.00,WeatherDisplay:10.37,2013-09-27 13:27:00,
2013-09-27 09:29:00,59.9,59.6,30.21,West,265,0.7,4.6,99,0.00,CLR,,0.00,WeatherDisplay:10.37,2013-09-27 13:29:00,
2013-09-27 09:30:00,59.9,59.6,30.21,West,265,0.0,0.0,99,0.00,CLR,,0.00,WeatherDisplay:10.37,2013-09-27 13:30:00,
2013-09-27 09:32:00,60.0,59.4,30.21,NW,311,2.4,4.6,98,0.00,CLR,,0.00,WeatherDisplay:10.37,2013-09-27 13:32:00,
2013-09-27 09:33:00,60.2,59.6,30.21,NW,304,2.5,4.7,98,0.00,CLR,,0.00,WeatherDisplay:10.37,2013-09-27 13:33:00,
2013-09-27 09:34:00,60.4,59.5,30.21,NW,304,4.7,6.9,97,0.00,CLR,,0.00,WeatherDisplay:10.37,2013-09-27 13:34:00,
2013-09-27 09:36:00,60.5,59.6,30.21,NNW,333,0.2,4.6,97,0.00,CLR,,0.00,WeatherDisplay:10.37,2013-09-27 13:36:00,
2013-09-27 09:38:00,60.6,60.0,30.21,WSW,244,0.0,0.0,98,0.00,CLR,,0.00,WeatherDisplay:10.37,2013-09-27 13:38:00,
2013-09-27 09:39:00,60.9,60.0,30.22,West,275,0.2,2.3,97,0.00,CLR,,0.00,WeatherDisplay:10.37,2013-09-27 13:39:00,
2013-09-27 09:41:00,61.2,60.1,30.21,NNW,340,0.0,4.6,96,0.00,CLR,,0.00,WeatherDisplay:10.37,2013-09-27 13:41:00,
2013-09-27 09:43:00,61.5,60.1,30.22,NW,309,2.1,5.8,95,0.00,CLR,,0.00,WeatherDisplay:10.37,2013-09-27 13:43:00,
2013-09-27 09:44:00,61.4,60.2,30.22,NNW,347,1.5,4.6,96,0.00,CLR,,0.00,WeatherDisplay:10.37,2013-09-27 13:44:00,
2013-09-27 09:46:00,61.5,60.1,30.22,NNW,347,0.0,0.0,95,0.00,CLR,,0.00,WeatherDisplay:10.37,2013-09-27 13:46:00,
2013-09-27 09:48:00,61.7,60.3,30.22,NNW,347,0.0,0.0,95,0.00,CLR,,0.00,WeatherDisplay:10.37,2013-09-27 13:48:00,
2013-09-27 09:49:00,62.1,60.7,30.22,NNW,347,0.0,0.0,95,0.00,CLR,,0.00,WeatherDisplay:10.37,2013-09-27 13:49:00,
2013-09-27 09:50:00,61.9,60.2,30.22,NNW,347,0.0,0.0,94,0.00,CLR,,0.00,WeatherDisplay:10.37,2013-09-27 13:50:00,
2013-09-27 09:51:00,62.0,60.3,30.22,NNW,347,0.0,0.0,94,0.00,CLR,,0.00,WeatherDisplay:10.37,2013-09-27 13:51:00,
2013-09-27 09:53:00,62.4,60.7,30.22,NNW,347,0.0,0.0,94,0.00,CLR,,0.00,WeatherDisplay:10.37,2013-09-27 13:53:00,
2013-09-27 09:54:00,62.2,60.2,30.22,NNW,347,0.0,0.0,93,0.00,CLR,,0.00,WeatherDisplay:10.37,2013-09-27 13:54:00,
2013-09-27 09:55:00,62.2,60.2,30.22,NNW,347,0.0,0.0,93,0.00,CLR,,0.00,WeatherDisplay:10.37,2013-09-27 13:55:00,
2013-09-27 09:56:00,62.5,60.4,30.22,NNW,347,0.0,0.0,93,0.00,CLR,,0.00,WeatherDisplay:10.37,2013-09-27 13:56:00,
2013-09-27 09:58:00,62.8,60.4,30.22,NW,313,0.0,3.5,92,0.00,CLR,,0.00,WeatherDisplay:10.37,2013-09-27 13:58:00,
2013-09-27 09:59:00,62.6,60.2,30.22,NW,313,0.0,0.0,92,0.00,CLR,,0.00,WeatherDisplay:10.37,2013-09-27 13:59:00,
2013-09-27 10:00:00,63.0,60.9,30.22,West,275,0.5,3.5,93,0.00,CLR,,0.00,WeatherDisplay:10.37,2013-09-27 14:00:00,
2013-09-27 10:01:00,63.1,60.7,30.22,West,270,0.9,3.5,92,0.00,CLR,,0.00,WeatherDisplay:10.37,2013-09-27 14:01:00,
2013-09-27 10:03:00,62.9,60.2,30.22,North,3,3.4,5.1,91,0.00,CLR,,0.00,WeatherDisplay:10.37,2013-09-27 14:03:00,
2013-09-27 10:04:00,63.5,60.8,30.22,NW,308,2.5,6.9,91,0.00,CLR,,0.00,WeatherDisplay:10.37,2013-09-27 14:04:00,
2013-09-27 10:05:00,63.6,60.9,30.22,NNW,347,0.1,4.6,91,0.00,CLR,,0.00,WeatherDisplay:10.37,2013-09-27 14:05:00,
2013-09-27 10:07:00,63.4,59.8,30.22,NNW,328,2.2,6.9,88,0.00,CLR,,0.00,WeatherDisplay:10.37,2013-09-27 14:07:00,
2013-09-27 10:09:00,63.4,59.8,30.22,NNW,328,0.0,2.3,88,0.00,CLR,,0.00,WeatherDisplay:10.37,2013-09-27 14:09:00,
2013-09-27 10:10:00,63.5,60.2,30.22,NNW,328,0.0,0.0,89,0.00,CLR,,0.00,WeatherDisplay:10.37,2013-09-27 14:10:00,
2013-09-27 10:12:00,64.1,60.5,30.22,NNW,328,0.0,0.0,88,0.00,CLR,,0.00,WeatherDisplay:10.37,2013-09-27 14:12:00,
2013-09-27 10:14:00,63.9,60.0,30.22,NNW,328,0.0,0.0,87,0.00,CLR,,0.00,WeatherDisplay:10.37,2013-09-27 14:14:00,
2013-09-27 10:15:00,64.0,59.4,30.22,NNW,328,0.0,0.0,85,0.00,CLR,,0.00,WeatherDisplay:10.37,2013-09-27 14:15:00,
2013-09-27 10:17:00,64.2,59.9,30.22,NNW,328,0.0,0.0,86,0.00,CLR,,0.00,WeatherDisplay:10.37,2013-09-27 14:17:00,
2013-09-27 10:19:00,64.4,60.4,30.22,NNW,328,0.0,0.0,87,0.00,CLR,,0.00,WeatherDisplay:10.37,2013-09-27 14:19:00,
2013-09-27 10:20:00,64.5,60.2,30.22,NNW,328,0.0,0.0,86,0.00,CLR,,0.00,WeatherDisplay:10.37,2013-09-27 14:20:00,
2013-09-27 10:21:00,64.4,60.1,30.22,NNW,328,0.0,0.0,86,0.00,CLR,,0.00,WeatherDisplay:10.37,2013-09-27 14:21:00,
2013-09-27 10:22:00,64.7,60.4,30.22,NNW,328,0.0,0.0,86,0.00,CLR,,0.00,WeatherDisplay:10.37,2013-09-27 14:22:00,
2013-09-27 10:24:00,64.7,60.1,30.22,NNW,328,0.0,0.0,85,0.00,CLR,,0.00,WeatherDisplay:10.37,2013-09-27 14:24:00,
2013-09-27 10:25:00,65.0,60.4,30.22,NNW,328,0.0,0.0,85,0.00,CLR,,0.00,WeatherDisplay:10.37,2013-09-27 14:25:00,
2013-09-27 10:26:00,65.2,60.2,30.22,NNW,328,0.0,0.0,84,0.00,CLR,,0.00,WeatherDisplay:10.37,2013-09-27 14:26:00,
2013-09-27 10:28:00,65.2,60.2,30.22,NNW,328,0.0,0.0,84,0.00,CLR,,0.00,WeatherDisplay:10.37,2013-09-27 14:28:00,
2013-09-27 10:29:00,65.3,60.3,30.22,NNW,328,0.0,0.0,84,0.00,CLR,,0.00,WeatherDisplay:10.37,2013-09-27 14:29:00,
2013-09-27 10:30:00,65.4,60.4,30.22,NNW,328,0.0,0.0,84,0.00,CLR,,0.00,WeatherDisplay:10.37,2013-09-27 14:30:00,
2013-09-27 10:31:00,65.3,60.0,30.22,NNW,328,0.0,0.0,83,0.00,CLR,,0.00,WeatherDisplay:10.37,2013-09-27 14:31:00,
2013-09-27 10:33:00,65.8,60.5,30.22,NNW,328,0.0,0.0,83,0.00,CLR,,0.00,WeatherDisplay:10.37,2013-09-27 14:33:00,
2013-09-27 10:34:00,65.8,60.2,30.22,NNW,328,0.0,0.0,82,0.00,CLR,,0.00,WeatherDisplay:10.37,2013-09-27 14:34:00,
2013-09-27 10:35:00,65.6,60.0,30.22,NNW,328,0.0,0.0,82,0.00,CLR,,0.00,WeatherDisplay:10.37,2013-09-27 14:35:00,
2013-09-27 10:38:00,65.9,59.9,30.22,NNW,328,0.0,0.0,81,0.00,CLR,,0.00,WeatherDisplay:10.37,2013-09-27 14:38:00,
2013-09-27 10:39:00,65.9,59.9,30.22,NNW,328,0.0,0.0,81,0.00,CLR,,0.00,WeatherDisplay:10.37,2013-09-27 14:39:00,
2013-09-27 10:40:00,66.4,60.0,30.22,NNW,328,0.0,0.0,80,0.00,CLR,,0.00,WeatherDisplay:10.37,2013-09-27 14:40:00,
2013-09-27 10:41:00,66.2,60.2,30.22,NNW,328,0.0,0.0,81,0.00,CLR,,0.00,WeatherDisplay:10.37,2013-09-27 14:41:00,
2013-09-27 10:43:00,66.3,59.6,30.22,NNW,328,0.0,0.0,79,0.00,CLR,,0.00,WeatherDisplay:10.37,2013-09-27 14:43:00,
2013-09-27 10:44:00,66.4,59.7,30.22,NNW,328,0.0,0.0,79,0.00,CLR,,0.00,WeatherDisplay:10.37,2013-09-27 14:44:00,
2013-09-27 10:45:00,66.5,60.1,30.22,NNW,328,0.0,0.0,80,0.00,CLR,,0.00,WeatherDisplay:10.37,2013-09-27 14:45:00,
2013-09-27 10:46:00,66.8,60.1,30.22,NNW,328,0.0,0.0,79,0.00,CLR,,0.00,WeatherDisplay:10.37,2013-09-27 14:46:00,
2013-09-27 10:48:00,66.9,60.2,30.22,NNW,328,0.0,0.0,79,0.00,CLR,,0.00,WeatherDisplay:10.37,2013-09-27 14:48:00,
2013-09-27 10:49:00,66.7,60.0,30.22,NNW,328,0.0,0.0,79,0.00,CLR,,0.00,WeatherDisplay:10.37,2013-09-27 14:49:00,
2013-09-27 10:51:00,67.0,60.3,30.22,NNW,328,0.0,0.0,79,0.00,CLR,,0.00,WeatherDisplay:10.37,2013-09-27 14:51:00,
2013-09-27 10:54:00,67.5,60.4,30.22,NNW,328,0.0,0.0,78,0.00,CLR,,0.00,WeatherDisplay:10.37,2013-09-27 14:54:00,
2013-09-27 10:56:00,67.9,60.1,30.22,WNW,289,4.6,5.8,76,0.00,CLR,,0.00,WeatherDisplay:10.37,2013-09-27 14:56:00,
2013-09-27 10:59:00,67.9,60.1,30.22,WNW,287,0.0,4.6,76,0.00,CLR,,0.00,WeatherDisplay:10.37,2013-09-27 14:59:00,
2013-09-27 11:01:00,68.3,60.8,30.22,WNW,287,0.0,0.0,77,0.00,CLR,,0.00,WeatherDisplay:10.37,2013-09-27 15:01:00,
2013-09-27 11:04:00,68.5,60.3,30.22,WNW,287,0.0,0.0,75,0.00,CLR,,0.00,WeatherDisplay:10.37,2013-09-27 15:04:00,
2013-09-27 11:05:00,68.4,60.2,30.22,WNW,287,0.0,0.0,75,0.00,CLR,,0.00,WeatherDisplay:10.37,2013-09-27 15:05:00,
2013-09-27 11:06:00,68.4,59.8,30.22,WNW,287,0.0,0.0,74,0.00,CLR,,0.00,WeatherDisplay:10.37,2013-09-27 15:06:00,
2013-09-27 11:07:00,68.5,59.9,30.22,WNW,287,0.0,0.0,74,0.00,CLR,,0.00,WeatherDisplay:10.37,2013-09-27 15:07:00,